Flag for U.S.A. Weather past 2 weeks in Lakewood, Colorado, U.S.A.

Now
69 °F

Mostly cloudy.


Feels Like: 69 °F
Forecast: 58 / 82 °F
Wind: 7 mph from Southwest

Location: Centennial Airport

Current Time: Sep 4, 2015 at 10:20:10 PM

Latest Report: Sep 4, 2015 at 9:53 PM


Visibility: 10 mi

Pressure: 29.79 "Hg (24.50 "Hg at 1683m altitude)

Humidity: 53%

Dew point: 51 °F

Location of LakewoodLocation

Historic Weather in Lakewood — Graph

°F

Lakewood temperature yesterday

Maximum temperature yesterday: 81 °F (at 1:53 PM)
Minimum temperature yesterday: 59 °F (at 9:53 PM)
Average temperature yesterday: 69 °F

Past Weeks' High & Low Weather Summary

 TemperatureHumidityPressure
High92 °F (Aug 25, 2:53 PM)90% (Sep 1, 12:53 AM)30.21 "Hg (Sep 1, 12:53 AM)
Low48 °F (Aug 23, 5:53 AM)12% (Aug 21, 2:53 PM)29.68 "Hg (Aug 21, 4:53 PM)
Average72 °F40%29.94 "Hg
* Reported Aug 20 8:53 PM — Sep 4 8:53 PM, Lakewood, Weather by CustomWeather, © 2015

Note: Actual official high and low records may vary slightly from our data, if they occured in-between our weather recording intervals... More about our weather records

Advertising

Lakewood weather history for previous 24 hours

 ConditionsComfort  
Time TempWeatherWind HumidityBarometerVisibility
8:53 PM
Fri, Sep 4
71 °FLight rain. Mostly cloudy.3 mph51%29.80 "Hg9 mi
7:53 PM73 °FMostly cloudy.5 mph40%29.83 "Hg10 mi
6:53 PM75 °FBroken clouds.6 mph36%29.82 "Hg10 mi
5:53 PM77 °FPartly sunny.9 mph32%29.81 "Hg10 mi
4:53 PM80 °FBroken clouds.12 mph24%29.79 "Hg10 mi
3:53 PM83 °FPartly sunny.10 mph23%29.77 "Hg10 mi
2:53 PM81 °FMostly cloudy.8 mph27%29.79 "Hg10 mi
1:53 PM81 °FCloudy.12 mph27%29.81 "Hg10 mi
12:53 PM81 °FMore clouds than sun.8 mph25%29.82 "Hg10 mi
11:53 AM80 °FBroken clouds.7 mph26%29.85 "Hg10 mi
10:53 AM77 °FPartly sunny.3 mph26%29.87 "Hg10 mi
9:53 AM74 °FPartly sunny.7 mph33%29.89 "Hg10 mi
8:53 AM69 °FScattered clouds.8 mph49%29.89 "Hg10 mi
7:53 AM60 °FPartly sunny.7 mph65%29.91 "Hg10 mi
6:53 AM57 °FPassing clouds.9 mph69%29.89 "Hg10 mi
5:53 AM57 °FPassing clouds.5 mph69%29.88 "Hg10 mi
4:53 AM58 °FPassing clouds.6 mph70%29.86 "Hg10 mi
3:53 AM57 °FPassing clouds.6 mph78%29.82 "Hg10 mi
2:53 AM58 °FPassing clouds.3 mph75%29.80 "Hg10 mi
1:53 AM58 °FPassing clouds.6 mph78%29.81 "Hg10 mi
12:53 AM62 °FPassing clouds.9 mph67%29.81 "Hg10 mi
11:53 PM
Thu, Sep 3
61 °FPassing clouds.No wind75%29.82 "Hg10 mi
10:53 PM59 °FPassing clouds.9 mph84%29.84 "Hg10 mi
Weather by CustomWeather, © 2015

See weather overviewHow to use our weather pages